Location: Unspecified
(51.5147°N, 7.4673°E)
Time: 12:42:07
(UTC+01:00)

Explorer 7 - Pass Details

Date: 23 February 2026
Orbit: 430 x 541 km, 50.2° (Epoch: 8 March)

Event Time Altitude Azimuth Distance (km) Brightness Sun altitude
Rises 18:36:27 0° 280° (W) 2,486 11.9 -6.4°
Reaches altitude 10° 18:38:43 10° 270° (W) 1,629 11.0 -6.8°
Maximum altitude 18:41:58 30° 208° (SSW) 893 8.3 -7.3°
Drops below altitude 10° 18:45:18 10° 146° (SSE) 1,684 9.0 -7.8°
Sets 18:47:42 0° 136° (SE) 2,586 9.9 -8.2°
Enters shadow 18:47:52 -1° 135° (SE) 2,650 9.9 -8.2°
